TimeCDT,TemperatureF,Dew PointF,Humidity,Sea Level PressureIn,VisibilityMPH,Wind Direction,Wind SpeedMPH,Gust SpeedMPH,PrecipitationIn,Events,Conditions,WindDirDegrees,DateUTC
12:53 AM,54.0,54.0,100,29.89,10.0,Calm,Calm,-,N/A,,Partly Cloudy,0,2013-03-31 05:53:00
1:53 AM,52.0,52.0,100,29.89,8.0,SSW,3.5,-,N/A,,Clear,210,2013-03-31 06:53:00
2:37 AM,51.8,51.8,100,29.91,2.0,Calm,Calm,-,N/A,,Mostly Cloudy,0,2013-03-31 07:37:00
2:53 AM,51.1,51.1,100,29.89,1.8,Calm,Calm,-,N/A,,Overcast,0,2013-03-31 07:53:00
2:57 AM,51.8,51.8,100,29.91,2.0,NNW,4.6,-,N/A,,Overcast,340,2013-03-31 07:57:00
3:07 AM,51.8,51.8,100,29.91,2.5,NNW,4.6,-,N/A,,Overcast,330,2013-03-31 08:07:00
3:17 AM,51.8,51.8,100,29.90,2.5,NNW,3.5,-,N/A,,Mostly Cloudy,330,2013-03-31 08:17:00
3:28 AM,51.8,51.8,100,29.89,0.8,Calm,Calm,-,N/A,,Scattered Clouds,0,2013-03-31 08:28:00
3:36 AM,50.0,50.0,100,29.88,0.2,Calm,Calm,-,N/A,Fog,Fog,0,2013-03-31 08:36:00
3:42 AM,51.8,51.8,100,29.88,0.5,Calm,Calm,-,N/A,Fog,Fog,0,2013-03-31 08:42:00
3:53 AM,51.1,51.1,100,29.86,1.2,Calm,Calm,-,N/A,,Mostly Cloudy,0,2013-03-31 08:53:00
4:04 AM,51.8,51.8,100,29.87,3.0,Calm,Calm,-,N/A,,Overcast,0,2013-03-31 09:04:00
4:10 AM,51.8,-9999,N/A,29.87,1.8,Calm,Calm,-,N/A,,Mostly Cloudy,0,2013-03-31 09:10:00
4:17 AM,51.8,-9999,N/A,29.86,0.5,Calm,Calm,-,N/A,Fog,Fog,0,2013-03-31 09:17:00
4:20 AM,51.8,51.8,100,29.87,0.2,Calm,Calm,-,N/A,Fog,Fog,0,2013-03-31 09:20:00
4:41 AM,50.0,50.0,100,29.86,0.2,Calm,Calm,-,N/A,Fog,Fog,0,2013-03-31 09:41:00
4:53 AM,48.9,48.9,100,29.87,0.5,NW,4.6,-,N/A,Fog,Fog,310,2013-03-31 09:53:00
4:58 AM,48.2,48.2,100,29.89,0.5,WNW,3.5,-,N/A,Fog,Fog,290,2013-03-31 09:58:00
5:08 AM,51.8,-9999,N/A,29.90,2.0,West,5.8,-,N/A,,Mostly Cloudy,260,2013-03-31 10:08:00
5:17 AM,51.8,51.8,100,29.90,6.0,WSW,5.8,-,0.01,,Overcast,250,2013-03-31 10:17:00
5:37 AM,53.6,-9999,N/A,29.90,10.0,West,3.5,-,0.01,,Scattered Clouds,280,2013-03-31 10:37:00
5:53 AM,54.0,-9999,N/A,29.89,10.0,WNW,8.1,-,0.01,,Mostly Cloudy,300,2013-03-31 10:53:00
6:07 AM,53.6,53.6,100,29.93,10.0,NNW,25.3,41.4,N/A,,Overcast,340,2013-03-31 11:07:00
6:10 AM,53.6,53.6,100,29.93,9.0,NNW,24.2,41.4,N/A,,Overcast,340,2013-03-31 11:10:00
6:17 AM,51.8,51.8,100,29.96,10.0,NNW,23.0,38.0,0.00,Rain,Light Rain,340,2013-03-31 11:17:00
6:39 AM,50.0,50.0,100,29.97,10.0,North,17.3,29.9,0.00,Rain,Light Rain,350,2013-03-31 11:39:00
6:53 AM,50.0,50.0,100,29.93,8.0,North,13.8,-,0.01,Rain,Light Rain,350,2013-03-31 11:53:00
7:53 AM,50.0,50.0,100,29.95,10.0,North,9.2,-,0.01,,Partly Cloudy,10,2013-03-31 12:53:00
8:53 AM,50.0,50.0,100,29.96,10.0,North,9.2,-,N/A,,Clear,10,2013-03-31 13:53:00
9:53 AM,52.0,51.1,97,29.96,10.0,ENE,9.2,-,N/A,,Partly Cloudy,60,2013-03-31 14:53:00
10:53 AM,55.9,51.1,84,29.97,10.0,ENE,8.1,-,N/A,,Clear,60,2013-03-31 15:53:00
11:53 AM,59.0,48.0,67,29.97,10.0,Calm,Calm,-,N/A,,Partly Cloudy,0,2013-03-31 16:53:00
12:53 PM,63.0,48.9,60,29.97,10.0,North,4.6,-,N/A,,Scattered Clouds,350,2013-03-31 17:53:00
1:53 PM,63.0,48.0,58,29.96,10.0,North,4.6,-,N/A,,Clear,10,2013-03-31 18:53:00
2:53 PM,66.0,48.9,54,29.94,10.0,North,9.2,-,N/A,,Clear,360,2013-03-31 19:53:00
3:53 PM,68.0,46.9,47,29.93,10.0,North,8.1,-,N/A,,Clear,360,2013-03-31 20:53:00
4:53 PM,68.0,41.0,37,29.91,10.0,North,11.5,-,N/A,,Clear,350,2013-03-31 21:53:00
5:53 PM,66.0,42.1,42,29.91,10.0,NNW,11.5,-,N/A,,Clear,340,2013-03-31 22:53:00
7:53 PM,57.9,44.1,60,29.93,10.0,NW,5.8,-,N/A,,Clear,310,2013-04-01 00:53:00
8:53 PM,54.0,43.0,66,29.95,10.0,NW,3.5,-,N/A,,Clear,320,2013-04-01 01:53:00
9:53 PM,53.1,42.1,66,29.97,10.0,NW,4.6,-,N/A,,Clear,310,2013-04-01 02:53:00
10:53 PM,52.0,41.0,66,29.98,10.0,NW,4.6,-,N/A,,Clear,310,2013-04-01 03:53:00
11:53 PM,48.9,42.1,77,29.97,10.0,West,3.5,-,N/A,,Clear,280,2013-04-01 04:53:00